• Currently

    Reported at Minneapolis, Minneapolis-St. Paul International Airport, MN
    4:10 AM CST TUE SEP 19 2017
  • 61°F16°C
  • Overcast
    Overcast
  • Feels Like:61°F16°CDew Point:57°F14°CHumidity:88% Winds:SE 8 mph 13 kph
    Pressure:29.91 in1013 hPaVisibility:10.00 miles16090.00 meters
Time Weather Temp Dew Point
Humidity Winds Visibility Pressure Precipitation
1 hr 24 hr
Monday, September 18
23:53 23:53 Partly Cloudy Partly Cloudy 56°F13°C 50°F10°C 81% SSE 5 mphSSE 7 kph 10.0 miles16.1 km 30.15 in1021 hPa 0.00 in0.00 mm --
22:53 22:53 Mostly Clear Mostly Clear 57°F14°C 48°F9°C 72% CalmCalm 10.0 miles16.1 km 30.15 in1021 hPa 0.00 in0.00 mm --
21:53 21:53 Mostly Clear Mostly Clear 59°F15°C 46°F8°C 62% CalmCalm 10.0 miles16.1 km 30.15 in1021 hPa 0.00 in0.00 mm --
20:53 20:53 Mostly Clear Mostly Clear 59°F15°C 47°F8°C 64% CalmCalm 10.0 miles16.1 km 30.12 in1020 hPa 0.00 in0.00 mm --
19:53 19:53 Mostly Clear Mostly Clear 61°F16°C 45°F7°C 56% N 7 mphN 11 kph 10.0 miles16.1 km 30.12 in1020 hPa 0.00 in0.00 mm --
18:53 18:53 Partly Cloudy Partly Cloudy 63°F17°C 46°F8°C 54% NNW 7 mphNNW 11 kph 10.0 miles16.1 km 30.12 in1020 hPa 0.00 in0.00 mm --
17:53 17:53 Partly Cloudy Partly Cloudy 65°F18°C 45°F7°C 49% NW 9 mphNW 15 kph 10.0 miles16.1 km 30.12 in1020 hPa 0.00 in0.00 mm --
16:53 16:53 Mostly Sunny Mostly Sunny 67°F19°C 44°F7°C 44% WNW 10 mphWNW 17 kph 10.0 miles16.1 km 30.12 in1020 hPa 0.00 in0.00 mm --
15:53 15:53 Mostly Sunny Mostly Sunny 66°F19°C 46°F8°C 49% WNW 9 mphWNW 15 kph 10.0 miles16.1 km 30.12 in1020 hPa 0.00 in0.00 mm --
14:53 14:53 Mostly Sunny Mostly Sunny 65°F18°C 46°F8°C 51% W 12 mphW 19 kph 10.0 miles16.1 km 30.15 in1021 hPa 0.00 in0.00 mm --
13:53 13:53 Mostly Sunny Mostly Sunny 65°F18°C 46°F8°C 51% W 12 mphW 19 kph 10.0 miles16.1 km 30.15 in1021 hPa 0.00 in0.00 mm --
12:53 12:53 Partly Cloudy Partly Cloudy 63°F17°C 45°F7°C 52% WNW 10 mphWNW 17 kph 10.0 miles16.1 km 30.15 in1021 hPa 0.00 in0.00 mm --
11:53 11:53 Partly Cloudy Partly Cloudy 59°F15°C 45°F7°C 60% N 6 mphN 9 kph 10.0 miles16.1 km 30.18 in1022 hPa 0.00 in0.00 mm --
10:53 10:53 Mostly Cloudy Mostly Cloudy 58°F14°C 46°F8°C 65% W 8 mphW 13 kph 10.0 miles16.1 km 30.18 in1022 hPa 0.00 in0.00 mm --
09:53 09:53 Mostly Cloudy Mostly Cloudy 55°F13°C 46°F8°C 72% NW 8 mphNW 13 kph 10.0 miles16.1 km 30.15 in1021 hPa 0.00 in0.00 mm --
09:31 09:31 Mostly Cloudy Mostly Cloudy 55°F13°C 46°F8°C 72% NNW 14 mphNNW 22 kph 10.0 miles16.1 km 30.15 in1021 hPa 0.00 in0.00 mm --
08:53 08:53 Mostly Cloudy Mostly Cloudy 54°F12°C 47°F8°C 77% WNW 13 mphWNW 20 kph 10.0 miles16.1 km 30.15 in1021 hPa 0.00 in0.00 mm --
07:53 07:53 Partly Cloudy Partly Cloudy 53°F12°C 48°F9°C 83% W 9 mphW 15 kph 10.0 miles16.1 km 30.15 in1021 hPa 0.00 in0.00 mm --
06:53 06:53 Mostly Cloudy Mostly Cloudy 53°F12°C 49°F9°C 86% W 6 mphW 9 kph 10.0 miles16.1 km 30.12 in1020 hPa 0.00 in0.00 mm --
05:53 05:53 Clear Clear 54°F12°C 49°F9°C 83% W 7 mphW 11 kph 10.0 miles16.1 km 30.09 in1019 hPa 0.00 in0.00 mm --
04:53 04:53 Clear Clear 55°F13°C 49°F9°C 80% W 6 mphW 9 kph 10.0 miles16.1 km 30.09 in1019 hPa 0.00 in0.00 mm --
03:53 03:53 Clear Clear 56°F13°C 49°F9°C 77% W 8 mphW 13 kph 10.0 miles16.1 km 30.09 in1019 hPa 0.00 in0.00 mm --
02:53 02:53 Mostly Clear Mostly Clear 56°F13°C 48°F9°C 75% WNW 8 mphWNW 13 kph 10.0 miles16.1 km 30.06 in1018 hPa 0.00 in0.00 mm --
01:53 01:53 Mostly Cloudy Mostly Cloudy 58°F14°C 50°F10°C 75% WNW 12 mphWNW 19 kph 10.0 miles16.1 km 30.03 in1017 hPa 0.00 in0.00 mm --
01:28 01:28 Partly Cloudy Partly Cloudy 58°F14°C 50°F10°C 75% WNW 13 mphWNW 20 kph 10.0 miles16.1 km 30.03 in1017 hPa 0.00 in0.00 mm --
00:53 00:53 Cloudy Cloudy 58°F14°C 51°F11°C 78% NW 14 mphNW 22 kph 10.0 miles16.1 km 30.03 in1017 hPa 0.00 in0.00 mm --